GFSSE_sfc_30mbdewp_333.txt.gz
Dewpoint
64 69 69 70 69 70 71 71 72 72 72 71 72 71 71 71 71 71 71 71 71 70 69 69 69 68 68 67 68 67 67 67 66 66 66 65 65 66 66 67 66 66 67
66 68 70 70 70 70 71 71 71 71 71 71 71 71 71 71 72 72 71 71 70 70 69 69 68 67 66 67 67 66 66 66 68 68 68 67 67 66 66 66 66 66 66
66 68 69 70 70 70 71 71 71 71 71 71 70 70 70 71 72 71 71 71 70 70 68 68 67 66 66 67 66 65 66 68 68 67 66 64 65 65 66 65 65 65 65
65 67 69 70 70 70 70 70 71 71 71 70 70 70 70 71 71 71 71 70 70 69 68 66 66 66 67 67 67 65 66 68 67 65 64 64 65 65 64 64 64 64 64
63 67 69 70 70 70 70 70 71 70 70 70 69 69 69 70 71 71 70 70 70 69 67 65 66 66 67 66 65 66 66 65 64 63 64 64 63 64 63 62 62 62 61
63 67 69 70 69 70 70 70 70 69 68 68 68 68 69 69 69 69 69 69 69 68 66 66 66 67 65 65 65 65 65 63 62 63 64 64 63 63 61 60 59 59 58
65 67 69 69 69 70 70 70 69 69 68 68 67 67 69 69 68 69 68 68 68 67 67 67 67 66 65 65 65 65 64 62 63 63 63 62 61 60 59 58 58 57 56
65 67 67 68 69 69 69 69 69 68 68 67 67 67 68 68 68 68 68 68 68 68 68 68 67 65 65 65 65 64 63 64 63 62 61 61 60 59 58 57 56 55 55
65 65 67 68 69 69 68 68 68 67 68 67 67 67 67 68 67 68 68 67 68 68 68 67 66 65 65 65 64 63 64 63 62 61 60 59 58 57 57 55 54 54 54
64 65 66 67 68 68 68 68 68 67 67 67 68 67 67 67 67 67 68 65 63 68 67 67 66 65 65 64 63 64 64 62 61 60 60 59 58 57 55 54 53 53 53
64 65 66 66 67 68 68 69 68 68 67 68 67 66 66 67 66 67 65 64 64 66 67 66 65 65 64 64 64 64 62 61 60 59 59 59 58 55 54 53 53 53 53
64 65 66 66 67 68 68 68 68 68 67 66 66 67 66 67 67 67 66 65 65 64 66 66 65 65 64 63 63 63 61 60 59 59 58 58 56 55 54 53 53 52 52
64 65 65 67 68 68 68 67 67 67 67 66 66 67 67 66 66 65 65 65 66 66 66 65 65 63 62 63 64 64 61 59 59 59 58 58 55 54 53 52 52 52 52
63 64 64 66 67 67 68 67 67 67 67 67 67 67 67 66 65 65 64 65 65 65 65 64 63 61 61 63 63 60 59 58 58 58 57 55 54 54 53 52 52 51 51
62 63 63 65 67 68 67 67 67 67 66 67 66 66 65 65 65 65 64 65 64 63 64 63 62 60 63 64 62 60 59 58 58 57 56 54 53 54 52 52 52 51 51
62 62 63 64 68 68 67 66 67 67 66 66 65 65 64 65 65 64 63 61 60 63 63 63 61 62 64 63 61 59 59 58 58 57 56 54 53 54 53 52 52 51 51
60 62 62 65 68 67 67 66 66 66 65 64 64 64 64 63 63 62 61 59 59 62 63 63 62 64 64 63 61 59 59 58 57 56 56 55 53 54 54 53 51 51 51
59 61 62 64 67 67 66 66 66 66 65 63 63 64 63 62 59 59 59 59 62 62 63 63 64 64 63 62 61 59 58 57 57 56 55 54 54 54 54 53 52 51 50
59 61 61 65 66 67 66 66 66 66 65 64 63 63 63 62 61 57 59 60 62 63 64 64 64 63 62 61 60 59 58 57 57 55 54 53 52 52 52 53 52 51 50
56 62 60 63 65 67 67 66 66 66 64 64 63 63 63 61 62 61 61 61 64 64 64 64 63 63 62 60 58 57 57 57 57 57 54 53 52 51 51 51 51 51 51
45 61 60 62 63 65 66 65 65 64 64 63 63 62 61 61 60 59 62 62 63 63 64 63 62 60 58 56 55 54 53 53 55 55 54 53 51 50 50 50 49 49 50
43 61 61 62 62 63 65 65 65 64 64 63 63 62 62 61 60 59 60 61 62 64 64 63 61 59 56 56 54 53 52 53 54 54 54 53 51 49 48 48 47 47 47
40 47 60 63 62 62 64 65 65 65 65 63 63 62 62 63 60 59 58 60 61 63 63 62 60 58 56 56 55 54 52 52 52 53 53 51 50 50 49 47 45 44 44
38 42 49 62 63 62 64 64 64 63 62 62 63 62 62 63 61 58 57 61 62 63 63 62 61 58 57 56 56 57 56 54 52 51 53 52 51 50 50 48 48 43 41
37 39 45 57 62 62 63 63 63 63 63 63 62 61 61 63 62 61 61 62 62 62 63 62 60 58 57 57 57 56 57 55 54 52 51 52 53 52 51 48 46 44 42
37 39 42 47 57 61 62 62 62 62 63 63 62 60 60 61 60 62 62 62 62 62 63 62 60 59 58 57 58 58 57 56 53 51 51 51 52 52 52 50 46 45 45

GFSSE_sfc_30mbdewp_336.txt.gz
Dewpoint
65 69 70 70 71 72 72 72 71 71 71 71 71 70 70 71 70 69 71 71 70 70 69 69 70 70 69 67 67 67 67 67 67 67 66 67 67 67 67 67 66 66 66
67 69 69 70 71 72 71 71 71 71 71 71 71 71 71 70 70 71 71 71 70 70 69 68 69 68 67 67 67 67 67 68 67 68 68 66 66 66 66 66 66 66 65
67 68 69 70 70 71 71 71 71 71 72 71 71 71 71 71 71 71 71 71 70 69 68 68 68 67 66 67 67 69 69 68 67 66 65 64 64 65 65 65 65 64 64
67 68 69 70 70 71 71 71 71 71 71 71 70 70 71 72 71 71 71 71 70 69 68 67 67 66 66 66 67 69 68 67 66 65 65 64 63 64 64 65 64 64 64
67 68 69 70 70 70 71 71 71 71 70 70 70 70 71 71 71 71 70 70 69 69 67 66 66 66 66 66 68 67 67 66 65 64 63 63 64 64 64 64 63 62 61
67 68 69 69 70 70 70 71 70 70 69 70 70 69 70 71 71 70 70 70 69 68 67 66 66 66 66 66 67 66 65 65 64 64 64 64 63 62 61 61 61 60 59
66 68 69 69 70 70 70 71 70 69 69 68 69 69 69 69 70 70 70 69 68 67 67 67 66 66 66 66 65 64 64 63 63 62 61 61 61 60 59 58 58 57 56
66 68 68 69 69 70 70 70 69 69 68 68 68 69 69 69 69 69 69 68 67 68 68 67 66 66 65 65 65 64 64 63 61 60 60 59 61 59 57 56 56 56 55
66 67 68 69 69 69 69 69 69 68 68 68 68 68 68 68 68 69 68 68 68 68 68 66 65 65 65 64 64 64 63 62 61 60 59 59 58 56 56 55 54 54 53
65 67 67 68 69 68 68 68 68 68 67 67 68 67 66 66 68 68 68 68 68 67 67 66 65 65 65 64 65 64 63 61 60 59 58 58 57 56 55 54 54 53 53
64 65 66 67 67 68 68 68 68 68 67 67 67 67 66 66 67 67 67 68 68 67 67 65 65 64 64 65 64 63 61 60 59 59 57 59 56 55 54 53 53 52 52
63 65 66 66 67 67 68 68 67 67 67 66 66 66 67 67 67 66 63 61 66 66 66 65 64 64 64 63 63 62 60 59 59 58 57 57 55 54 53 53 53 52 52
64 65 66 66 67 67 67 67 67 67 67 66 66 65 66 67 67 66 64 62 65 66 65 64 64 63 63 64 62 61 59 59 59 57 56 56 55 54 53 53 52 51 51
64 65 66 67 67 67 66 66 66 65 65 66 66 66 66 66 66 65 64 63 63 65 65 63 64 62 64 63 61 59 58 58 58 57 57 55 55 53 53 52 52 52 51
63 64 65 67 67 66 65 65 66 66 66 66 66 67 67 66 65 64 64 63 64 65 63 62 62 61 64 62 60 58 58 58 57 57 55 55 53 53 52 52 52 51 51
63 63 64 67 67 67 65 65 66 66 66 66 66 66 67 65 64 63 64 63 64 64 62 61 61 63 63 62 59 58 58 57 57 56 55 54 53 53 53 52 52 52 51
62 63 63 67 67 66 66 65 66 66 66 66 66 66 66 66 64 63 63 62 62 63 63 62 62 64 62 61 59 58 58 57 56 55 54 53 53 54 53 53 52 51 51
62 62 63 66 67 66 65 66 66 67 66 66 65 65 65 66 65 63 62 61 61 62 63 62 63 63 62 60 58 58 57 57 56 55 54 53 54 54 54 53 53 52 51
43 62 62 65 66 66 65 65 66 66 65 65 64 64 64 65 64 63 61 60 61 62 63 63 63 63 62 60 59 58 57 56 56 55 54 53 53 53 53 54 53 52 51
39 55 62 65 66 66 65 65 65 65 64 64 63 64 64 64 63 60 61 58 63 62 63 63 63 63 61 60 59 57 57 57 56 55 53 53 53 52 52 52 53 52 52
37 42 61 64 66 66 64 63 64 63 63 63 62 63 63 63 63 61 62 59 64 63 63 63 63 62 60 58 56 55 54 54 56 56 54 53 52 51 51 51 51 50 51
36 39 44 51 65 65 65 63 64 64 63 63 62 62 63 63 63 60 59 62 64 63 63 63 62 59 58 59 56 54 53 54 54 54 55 53 52 51 50 50 50 49 50
35 38 42 46 53 65 64 64 64 64 63 62 62 61 62 62 60 57 56 55 61 62 63 62 61 59 57 57 56 54 52 52 53 54 54 54 51 50 49 49 48 48 48
35 38 42 46 51 63 65 64 63 62 61 61 61 61 61 61 59 58 59 59 60 61 63 62 61 59 57 56 56 56 55 53 52 51 53 53 51 50 49 48 47 46 46
35 37 41 45 49 55 61 63 63 62 63 62 62 61 61 60 59 60 60 61 58 61 63 63 61 59 59 56 55 56 56 54 53 52 51 52 53 51 51 49 48 46 44
34 36 39 42 45 49 54 57 62 62 62 62 61 61 61 61 59 59 60 59 60 61 63 63 62 60 58 57 57 56 56 55 54 51 50 51 52 52 52 51 48 47 44

GFSSE_sfc_30mbdewp_339.txt.gz
Dewpoint
66 69 71 72 72 72 71 71 71 71 71 71 70 70 71 70 69 70 71 71 70 70 70 70 70 70 69 67 68 67 67 67 67 67 67 67 67 67 66 66 66 66 66
67 69 70 72 72 72 71 71 70 71 71 71 70 70 71 70 70 71 71 71 70 69 70 70 70 69 67 67 68 68 68 67 67 68 67 67 66 66 66 66 66 65 65
67 69 70 71 72 72 71 71 71 71 72 71 69 71 71 70 71 71 71 71 70 70 69 69 68 67 67 68 68 69 68 68 67 66 65 65 65 65 65 65 64 63 64
67 68 69 71 71 71 71 71 71 71 72 71 71 71 70 70 71 71 70 70 70 69 69 68 67 66 67 69 68 67 67 66 66 65 63 63 64 64 65 65 65 64 63
67 68 69 70 71 71 71 71 71 71 71 71 71 71 71 71 71 70 70 69 69 68 68 67 66 67 69 69 68 67 66 65 65 63 63 64 64 65 64 63 63 62 61
67 68 70 70 70 71 71 71 71 71 71 71 70 70 71 71 71 70 69 69 69 68 68 66 66 67 68 67 67 66 65 65 64 63 63 63 63 63 62 61 61 61 59
67 69 69 70 70 70 71 71 71 70 70 70 70 69 68 69 70 69 70 69 69 68 68 66 67 67 67 66 66 65 65 64 62 61 61 61 61 61 60 59 57 57 56
67 68 69 69 69 70 71 70 70 69 69 69 69 69 67 67 68 69 69 69 68 68 67 66 67 67 66 65 65 64 63 62 60 59 59 60 61 59 57 57 56 55 55
67 68 68 69 69 70 70 70 69 69 68 68 68 67 67 67 68 69 69 68 68 68 66 66 66 66 66 65 64 63 62 61 59 59 58 57 57 56 56 55 54 54 54
67 67 68 68 69 69 69 69 68 68 68 67 67 67 67 67 67 68 68 69 68 67 66 65 65 66 65 65 64 63 62 60 59 58 57 58 56 55 54 54 54 53 52
65 66 67 68 68 68 68 68 68 68 67 66 66 67 67 67 67 67 67 68 67 66 65 65 65 64 65 64 63 62 60 59 58 57 58 58 55 55 54 54 53 53 51
63 65 66 67 67 67 68 68 68 67 67 66 67 66 66 67 66 66 65 67 67 66 65 65 64 65 64 63 62 61 59 59 58 57 58 57 55 54 54 53 53 52 51
63 64 65 66 67 67 66 67 67 67 66 66 66 66 66 67 66 65 64 66 66 65 64 64 64 64 63 62 61 59 59 58 58 56 57 56 54 53 53 53 52 52 51
62 63 65 66 66 66 65 66 66 66 66 66 66 66 66 66 66 64 61 63 65 64 63 63 63 64 63 61 60 59 58 58 57 56 56 55 54 53 53 53 52 52 51
63 64 65 66 65 66 65 66 66 66 66 65 65 65 66 65 65 65 62 61 64 65 63 63 62 64 62 60 59 58 58 57 57 56 55 55 54 53 53 52 52 51 51
39 63 65 66 65 65 64 65 65 65 65 66 65 65 65 65 65 65 64 61 63 64 62 62 62 63 61 59 58 58 57 57 56 55 55 54 53 54 53 52 52 52 52
36 40 64 66 65 65 64 65 66 65 65 65 66 66 66 66 65 64 64 62 61 64 62 62 64 63 61 60 58 58 57 56 55 54 54 53 53 54 53 53 52 52 51
36 38 47 66 65 65 64 65 65 66 66 65 66 66 66 66 65 64 64 63 63 62 63 62 63 62 60 59 58 57 57 56 55 54 53 53 54 54 54 53 53 52 51
36 38 46 64 65 64 65 64 65 65 66 66 66 65 66 66 65 63 63 62 61 60 62 62 63 61 60 59 58 57 56 56 55 54 53 53 53 53 53 54 53 53 52
35 37 43 48 65 65 65 64 65 65 65 65 65 65 65 65 64 63 62 60 62 62 62 62 63 62 60 59 57 57 56 56 55 54 53 53 53 53 53 53 53 52 52
34 36 41 45 48 59 64 64 64 63 64 64 64 64 65 65 64 62 62 60 62 61 61 62 63 61 60 58 56 55 55 56 55 54 54 53 52 52 52 52 52 51 52
33 35 39 43 47 51 62 64 63 63 64 63 64 64 64 64 62 60 57 60 62 61 63 62 61 61 58 58 56 55 53 54 55 55 54 53 52 51 51 51 51 50 51
33 35 37 41 44 49 57 64 64 64 63 62 62 62 63 63 61 58 55 60 62 62 62 62 61 60 58 59 57 55 52 52 54 54 54 53 52 51 51 50 50 50 50
33 35 37 40 43 47 49 60 63 62 60 61 61 62 62 63 63 62 59 60 62 63 62 62 62 60 58 57 57 56 55 53 52 52 53 53 52 51 50 49 49 49 48
32 34 36 39 41 45 47 51 59 62 61 61 62 61 62 61 62 60 60 57 59 61 62 62 62 60 59 58 57 56 56 54 53 52 51 52 52 51 50 49 48 48 47
31 33 35 37 40 42 45 48 52 61 62 61 61 60 60 61 61 59 58 57 58 59 61 62 62 60 59 58 57 55 55 54 53 51 50 51 52 52 51 50 48 48 46

GFSSE_sfc_30mbdewp_342.txt.gz
Dewpoint
65 70 71 72 72 71 71 72 72 72 71 70 70 69 69 69 70 70 70 70 69 70 70 70 70 70 69 68 68 67 66 66 66 67 67 66 66 66 66 66 66 65 65
67 70 71 72 71 71 71 71 71 72 71 70 70 70 69 70 70 70 71 70 70 70 70 70 70 68 67 68 68 67 68 68 68 67 67 67 66 66 66 66 65 65 64
67 70 71 72 71 71 71 71 71 72 71 70 71 71 70 70 71 71 70 70 70 70 70 70 68 67 67 68 68 69 68 67 66 66 66 65 65 65 65 64 65 65 64
67 69 71 71 71 71 71 71 71 72 72 70 71 71 70 70 71 71 71 70 70 70 70 68 67 67 68 69 68 67 67 66 64 63 63 64 64 64 64 64 64 63 63
67 68 70 71 71 71 71 71 71 72 72 70 71 70 70 71 70 71 70 70 70 70 68 67 67 67 68 68 67 66 65 65 63 62 63 64 65 64 64 63 63 61 61
67 68 70 71 71 71 71 71 71 71 71 71 71 70 70 71 71 70 70 69 69 69 68 67 67 68 68 67 67 66 65 64 63 62 63 63 64 63 63 62 60 59 57
67 68 69 70 71 71 71 71 71 71 71 71 71 70 69 71 69 69 69 69 69 69 68 68 68 68 67 67 66 65 64 62 61 61 61 62 62 62 60 59 58 57 55
67 68 69 69 70 71 71 71 71 70 70 70 70 69 68 67 67 67 68 68 69 68 67 68 68 67 67 66 65 64 63 61 59 59 60 60 61 59 58 57 56 55 55
67 67 68 69 69 70 70 70 70 69 70 70 69 68 66 66 66 67 68 68 68 67 67 68 67 66 66 65 64 63 61 60 59 59 58 57 58 56 55 55 54 54 53
66 67 67 68 69 69 70 69 69 69 69 69 68 67 66 66 66 66 67 68 68 67 67 67 66 65 65 64 63 62 61 60 57 57 57 58 55 55 55 54 53 53 53
65 65 65 67 67 68 69 69 69 69 68 68 67 67 66 65 66 67 66 68 67 66 67 66 66 66 64 64 63 61 59 58 57 57 58 56 55 54 54 53 52 54 53
63 63 64 65 66 67 67 68 68 68 68 67 67 67 66 66 66 66 66 67 66 66 66 65 66 65 63 62 62 60 59 58 57 58 58 57 54 54 54 53 53 52 52
53 63 64 64 65 66 65 67 67 67 66 66 66 66 67 67 67 66 67 66 65 65 65 65 65 63 62 61 60 59 58 57 57 57 57 56 54 54 53 53 52 52 53
39 42 58 64 65 66 65 66 67 66 66 66 66 66 66 66 65 65 65 65 63 63 64 64 64 63 62 60 59 59 58 57 56 56 57 54 53 53 53 53 52 52 51
36 39 42 51 64 65 65 66 66 66 66 66 66 66 66 65 65 64 64 65 64 63 63 63 64 62 61 60 59 58 57 57 56 56 55 53 54 53 53 53 52 52 51
35 37 41 45 61 64 64 66 66 66 66 66 66 66 65 65 65 64 62 63 65 64 63 63 63 61 60 59 58 58 57 56 55 55 55 54 54 53 53 53 52 52 52
34 36 40 46 52 64 64 65 66 65 66 65 65 65 65 65 65 65 61 61 64 63 63 63 63 61 59 58 58 57 56 56 55 55 54 54 54 54 53 52 52 52 51
34 36 39 45 50 62 64 65 65 65 65 65 65 65 65 65 65 65 62 60 62 63 63 64 63 61 59 58 57 57 56 55 54 54 53 53 54 54 54 52 52 52 52
34 35 39 43 47 50 64 65 65 66 65 65 66 66 65 65 65 64 64 61 61 60 62 63 62 60 59 58 57 57 56 55 54 53 53 53 53 54 54 54 53 53 52
33 35 37 41 45 47 53 65 65 65 66 65 65 66 66 66 65 64 63 63 61 60 61 63 62 61 59 58 57 56 56 55 54 53 53 53 53 53 53 54 54 53 52
33 34 37 39 42 45 49 55 63 63 64 65 65 65 66 65 64 63 62 62 60 59 61 62 62 60 59 58 56 55 55 56 54 53 53 53 53 53 53 53 53 52 53
31 33 35 38 41 44 47 49 55 63 64 64 65 65 65 65 64 63 62 62 61 59 60 62 62 59 58 58 56 55 52 54 55 54 53 53 52 52 52 52 52 51 52
30 32 34 37 39 42 46 48 54 64 63 63 63 63 64 64 63 62 61 62 61 61 59 61 62 60 57 58 57 55 53 52 53 55 54 53 52 52 51 51 51 51 51
30 32 34 36 38 41 43 46 48 55 61 62 62 63 64 64 63 62 61 61 62 61 60 60 62 60 58 57 57 58 55 54 52 52 54 54 53 52 51 51 51 51 50
30 30 32 35 37 39 41 44 46 49 57 62 62 62 62 63 62 61 61 56 61 62 61 61 61 60 59 58 57 57 55 54 53 52 50 52 53 52 52 51 50 50 49
27 28 31 34 36 37 39 41 44 45 49 57 61 61 62 62 62 61 59 56 60 63 62 61 61 60 59 59 58 57 55 53 53 51 50 51 52 52 51 51 50 49 49

GFSSE_sfc_30mbdewp_348.txt.gz
Dewpoint
59 66 72 73 73 73 71 71 71 71 71 71 70 70 70 70 70 69 69 70 70 70 69 69 69 68 67 66 68 67 66 67 68 68 68 67 67 67 66 66 64 63 65
60 66 72 72 73 73 71 70 71 71 70 70 70 70 70 70 69 69 70 70 70 69 68 69 69 68 67 67 67 67 68 69 68 68 68 66 66 66 65 65 64 65 64
62 66 68 72 72 73 71 71 71 71 71 70 70 70 70 69 68 68 69 69 69 69 69 68 68 68 67 67 68 69 68 68 68 68 66 63 65 66 65 65 65 64 62
64 66 66 72 72 72 72 72 71 71 71 70 70 69 69 69 69 68 69 68 69 69 69 68 68 66 68 69 69 68 68 67 66 64 60 62 63 65 65 64 63 62 61
64 64 68 71 71 72 72 72 72 71 71 70 70 69 68 69 69 69 69 69 70 69 69 69 66 68 69 68 67 66 66 65 64 61 55 58 61 64 63 63 61 60 59
64 65 70 71 71 71 71 72 72 71 71 70 69 68 69 70 70 69 69 70 70 69 69 68 68 69 68 67 66 65 64 62 60 55 61 63 63 63 62 61 60 59 57
64 65 67 70 71 71 71 71 71 71 71 70 69 68 68 69 69 67 68 69 69 69 69 68 69 68 67 66 65 62 61 61 53 56 60 62 63 61 60 60 59 57 56
65 65 66 70 70 70 70 70 70 71 70 69 69 68 67 68 67 66 66 67 68 69 69 68 68 67 66 66 64 61 60 58 54 57 59 61 62 61 60 59 58 56 55
53 63 66 65 67 70 70 70 70 70 70 68 68 67 66 65 67 68 67 66 67 68 68 68 67 67 66 65 63 61 59 59 55 58 59 60 61 60 59 58 57 54 55
48 49 52 63 66 64 64 69 70 69 69 68 67 66 66 66 66 67 67 67 66 68 68 68 67 66 65 63 62 61 60 58 56 56 57 59 60 57 58 57 56 54 55
46 46 46 53 55 64 66 66 68 69 69 68 68 67 66 67 66 67 67 67 67 68 68 67 66 65 64 63 62 60 59 56 55 55 55 57 57 57 56 56 54 54 55
41 45 45 47 51 56 65 66 65 66 65 66 65 67 67 67 66 65 67 67 67 67 67 67 66 64 62 60 60 60 57 56 55 55 55 58 56 55 57 56 55 53 56
37 42 43 45 49 53 56 66 65 67 67 67 65 66 67 66 65 65 66 67 67 66 66 65 64 60 58 58 58 57 57 57 56 54 55 57 55 55 55 56 56 55 55
36 38 42 44 49 52 54 59 65 65 67 67 66 66 67 66 65 64 64 66 67 66 64 62 61 60 60 58 58 58 58 56 55 55 55 56 56 54 53 54 55 55 55
34 38 41 44 48 51 53 57 64 65 65 66 67 67 67 66 65 65 65 65 65 66 63 62 61 61 62 59 60 59 58 57 57 54 53 56 55 55 53 56 54 55 55
33 35 41 43 46 50 53 56 60 66 65 66 67 67 66 66 65 65 66 65 66 65 63 61 63 63 62 60 60 59 59 58 57 55 52 53 55 54 55 54 55 54 54
32 35 39 42 45 48 52 55 59 64 66 66 66 66 66 67 65 65 65 65 65 66 64 63 63 63 61 61 60 59 59 58 56 54 50 51 52 54 54 54 53 53 52
31 34 37 41 44 46 49 52 56 60 66 66 67 66 66 67 66 65 65 64 65 65 65 64 64 62 61 60 59 59 58 57 56 54 50 49 50 50 53 53 53 53 52
31 33 35 40 42 45 47 49 54 58 66 66 67 66 66 66 66 65 64 64 64 63 64 64 63 62 60 59 58 58 57 56 56 53 51 50 50 49 50 53 54 54 53
30 32 34 37 41 43 45 47 49 54 58 64 66 66 66 66 66 64 64 63 63 62 63 63 62 62 61 59 57 58 57 56 55 53 52 49 50 49 49 50 52 52 53
28 30 33 35 39 41 42 43 45 49 50 54 65 66 66 66 66 65 64 62 63 62 61 62 62 60 60 60 58 57 57 57 55 54 52 50 50 50 49 49 49 48 51
26 29 31 34 37 39 41 43 45 46 50 54 57 66 66 65 65 65 64 62 62 61 61 62 62 60 59 60 57 55 52 54 55 55 54 52 53 50 49 50 49 48 47
23 26 29 32 35 38 40 42 43 46 48 52 54 61 65 65 65 65 65 62 62 61 60 61 62 60 58 58 58 56 52 52 54 55 55 54 54 52 49 51 51 50 49
21 25 28 30 33 35 38 40 41 42 43 47 48 52 56 65 65 65 64 63 62 62 60 60 61 61 59 57 58 59 56 56 52 53 55 54 54 54 53 51 52 53 52
19 22 26 29 31 34 36 39 40 41 43 45 47 50 55 64 65 65 64 63 62 62 61 60 60 60 61 58 57 58 58 57 55 53 52 54 55 55 55 55 53 53 53
18 21 23 27 29 32 35 37 39 40 41 43 44 46 50 56 64 64 64 63 62 62 62 61 61 60 60 59 59 58 57 56 56 54 53 53 54 54 55 55 56 54 53